WetterOnline ( https://www.wetteronline.ch )

Wetter aktuell Neustrelitz

Aktuelles Wetter: Feldberg (115m)

6-stündlich | Neueste Meldungen
Ortszeit Temperatur Wetter
So, 24.01. 1:00 -2.8° C Nebel
Sa, 23.01. 19:00 0.3° C bedeckt
Sa, 23.01. 13:00 1.5° C bewölkt
Sa, 23.01. 7:00 -0.3° C bedeckt
Sa, 23.01. 1:00 -0.5° C bedeckt
Fr, 22.01. 19:00 2.6° C fast wolkenlos
Fr, 22.01. 13:00 6.0° C bewölkt
Fr, 22.01. 7:00 8.5° C wolkenlos
Ortszeit Temperatur Wetter
So, 24.01. 3:30 -1.3° C bedeckt
So, 24.01. 3:20 -1.3° C bedeckt
So, 24.01. 3:10 -1.4° C bedeckt
So, 24.01. 3:00 -1.3° C bedeckt
So, 24.01. 2:50 -1.3° C bedeckt
So, 24.01. 2:40 -1.3° C bedeckt
So, 24.01. 2:30 -1.4° C bedeckt
So, 24.01. 2:00 -1.6° C bedeckt
So, 24.01. 1:30 -2.1° C Nebel
So, 24.01. 1:00 -2.8° C Nebel
So, 24.01. 0:30 -3.0° C Nebel
So, 24.01. 0:00 -2.9° C Nebel
Ortszeit Relative Feuchte Sichtweite
So, 24.01. 1:00 99% 100 m
Sa, 23.01. 19:00 96% 11 km
Sa, 23.01. 13:00 90% 16 km
Sa, 23.01. 7:00 96% 10 km
Sa, 23.01. 1:00 96% 21 km
Fr, 22.01. 19:00 87% 55 km
Fr, 22.01. 13:00 75% >70 km
Fr, 22.01. 7:00 73% >70 km
Ortszeit Relative Feuchte Sichtweite
So, 24.01. 3:30 99% 2.8 km
So, 24.01. 3:20 99% -
So, 24.01. 3:10 99% -
So, 24.01. 3:00 99% 2.8 km
So, 24.01. 2:50 99% -
So, 24.01. 2:40 99% -
So, 24.01. 2:30 99% 2.2 km
So, 24.01. 2:00 99% 3.0 km
So, 24.01. 1:30 100% 0.2 km
So, 24.01. 1:00 99% 100 m
So, 24.01. 0:30 99% 0.2 km
So, 24.01. 0:00 99% 100 m
Ortszeit Niederschlagsmenge Niederschlagsart
So, 24.01. 1:00 0.0 l/m2 in 6 Std. -
Sa, 23.01. 19:00 0.1 l/m2 in 12 Std. Regen
Sa, 23.01. 13:00 0.0 l/m2 in 6 Std. -
Sa, 23.01. 7:00 0.0 l/m2 in 12 Std. -
Sa, 23.01. 1:00 0.0 l/m2 in 6 Std. -
Fr, 22.01. 19:00 0.1 l/m2 in 12 Std. -
Fr, 22.01. 13:00 0.1 l/m2 in 6 Std. Regen
Fr, 22.01. 7:00 2 l/m2 in 12 Std. Regen
Ortszeit Niederschlagsmenge Niederschlagsart
So, 24.01. 3:30 0.0 l/m2 in 1 Std. -
So, 24.01. 3:20 keine Meldung -
So, 24.01. 3:10 keine Meldung -
So, 24.01. 3:00 0.0 l/m2 in 1 Std. -
So, 24.01. 2:50 keine Meldung -
So, 24.01. 2:40 keine Meldung -
So, 24.01. 2:30 0.0 l/m2 in 1 Std. -
So, 24.01. 2:00 0.0 l/m2 in 1 Std. -
So, 24.01. 1:30 0.0 l/m2 in 1 Std. -
So, 24.01. 1:00 0.0 l/m2 in 1 Std. -
So, 24.01. 0:30 0.0 l/m2 in 1 Std. -
So, 24.01. 0:00 0.0 l/m2 in 1 Std. -
Ortszeit Stärke Spitze Richtung
km/h Bft. km/h Grad Sektor
So, 24.01. 1:00 0 0 11 - -
Sa, 23.01. 19:00 0 0 14 - -
Sa, 23.01. 13:00 7 2 14 310° NW
Sa, 23.01. 7:00 4 1 11 290° W
Sa, 23.01. 1:00 4 1 18 240° SW
Fr, 22.01. 19:00 11 2 36 230° SW
Fr, 22.01. 13:00 20 4 61 240° SW
Fr, 22.01. 7:00 30 5 56 190° S
Ortszeit Stärke Spitze Richtung
km/h Bft. km/h Grad Sektor
So, 24.01. 3:30 4 1 7 170° S
So, 24.01. 3:20 4 1 - 170° S
So, 24.01. 3:10 4 1 - 130° SO
So, 24.01. 3:00 4 1 7 150° SO
So, 24.01. 2:50 4 1 - 150° SO
So, 24.01. 2:40 4 1 - 170° S
So, 24.01. 2:30 4 1 7 140° SO
So, 24.01. 2:00 4 1 7 110° O
So, 24.01. 1:30 0 0 4 - -
So, 24.01. 1:00 0 0 7 - -
So, 24.01. 0:30 4 1 7 130° SO
So, 24.01. 0:00 0 0 4 - -
Ortszeit Untergrenze Bedeckung Gattung
total tief tief mittel hoch
So, 24.01. 1:00 <30 m 8/8 0/8 - - -
Sa, 23.01. 19:00 2400 m 8/8 8/8 - - -
Sa, 23.01. 13:00 1410 m 7/8 7/8 - - -
Sa, 23.01. 7:00 2700 m 8/8 8/8 - - -
Sa, 23.01. 1:00 3600 m 8/8 8/8 - - -
Fr, 22.01. 19:00 840 m 1/8 1/8 - - -
Fr, 22.01. 13:00 720 m 7/8 7/8 - - -
Fr, 22.01. 7:00 1500 m 0/8 0/8 - - -
Ortszeit Bedeckungsgrad in Achtel und Wolkenuntergrenze
So, 24.01. 3:30 8(30m) 8(930m) 8(2400m)
So, 24.01. 3:20 8(30m) 8(930m) 8(2400m)
So, 24.01. 3:10 8(<30m) 8(2400m)
So, 24.01. 3:00 8(30m) 8(1140m) 8(2400m)
So, 24.01. 2:50 8(30m) 8(1140m) 8(2400m)
So, 24.01. 2:40 8(30m) 8(1110m) 8(2400m)
So, 24.01. 2:30 8(30m) 8(1050m)
So, 24.01. 2:00 5(30m) 8(990m)
So, 24.01. 1:30 4(<30m) 8(930m)
So, 24.01. 1:00 7(<30m) 7(960m) 8(5400m)
So, 24.01. 0:30 4(<30m) 8(5700m)
So, 24.01. 0:00 6(<30m) 8(5700m)
Ortszeit Luftdruck NN (hPa) Tendenz (hPa in 3 Std.)
So, 24.01. 1:00 997 + 0,1
Sa, 23.01. 19:00 996 + 0,2
Sa, 23.01. 13:00 997 - 1,5
Sa, 23.01. 7:00 997 - 0,6
Sa, 23.01. 1:00 998 + 1,0
Fr, 22.01. 19:00 995 + 1,9
Fr, 22.01. 13:00 991 + 2,3
Fr, 22.01. 7:00 986 - 1,9
Ortszeit Luftdruck NN (hPa) Tendenz (hPa in 3 Std.)
So, 24.01. 3:30 997 + 0,2
So, 24.01. 3:20 997 keine Meldung
So, 24.01. 3:10 996 keine Meldung
So, 24.01. 3:00 997 + 0,2
So, 24.01. 2:50 997 keine Meldung
So, 24.01. 2:40 997 keine Meldung
So, 24.01. 2:30 997 + 0,3
So, 24.01. 2:00 996 0,0
So, 24.01. 1:30 996 0,0
So, 24.01. 1:00 997 + 0,1
So, 24.01. 0:30 996 - 0,2
So, 24.01. 0:00 996 - 0,2
Ortszeit Schneehöhe (cm)
So, 24.01. 1:00 0
Sa, 23.01. 19:00 0
Sa, 23.01. 13:00 0
Sa, 23.01. 7:00 0
Sa, 23.01. 1:00 0
Fr, 22.01. 19:00 0
Fr, 22.01. 13:00 0
Fr, 22.01. 7:00 0
Ortszeit Schneehöhe (cm)
So, 24.01. 3:30 0
So, 24.01. 3:20 0
So, 24.01. 3:10 0
So, 24.01. 3:00 0
So, 24.01. 2:50 0
So, 24.01. 2:40 0
So, 24.01. 2:30 0
So, 24.01. 2:00 0
So, 24.01. 1:30 0
So, 24.01. 1:00 0
So, 24.01. 0:30 0
So, 24.01. 0:00 0
Link zu dieser Seite / Seite empfehlen

Das Wetter in ...